• In Deutschland
  • Länderverzeichnis
  • Für 7 Tage
  • Wassertemperatur
  • Satellitenkarten
  • Wetterkarte
  • Widgets
  • user-avatar
    Anmelden

    Stündliche Wetter Poti

    Heute, 12 Dezember, Dienstag

    Zeit Temperatur Niederschläge Wind Luftdruck Luftfeuchtigkeit
    00:00 +6°C° 0 mm 5 m/S 772 mmHg 68%
    01:00 +6°C° 0 mm 5 m/S 771 mmHg 67%
    02:00 +6°C° 0 mm 5 m/S 771 mmHg 66%
    03:00 +6°C° 0 mm 5 m/S 771 mmHg 65%
    04:00 +6°C° 0 mm 5 m/S 771 mmHg 64%
    05:00 +6°C° 0 mm 5 m/S 771 mmHg 63%
    06:00 +6°C° 0 mm 5 m/S 771 mmHg 62%
    07:00 +7°C° 0 mm 5 m/S 771 mmHg 61%
    08:00 +7°C° 0 mm 5 m/S 771 mmHg 60%
    09:00 +8°C° 0 mm 5 m/S 771 mmHg 59%
    10:00 +10°C° 0 mm 5 m/S 770 mmHg 55%
    11:00 +13°C° 0 mm 4 m/S 770 mmHg 51%
    12:00 +15°C° 0 mm 4 m/S 770 mmHg 48%
    13:00 +15°C° 0 mm 4 m/S 769 mmHg 51%
    14:00 +15°C° 0 mm 4 m/S 769 mmHg 54%
    15:00 +16°C° 0 mm 3 m/S 769 mmHg 57%
    16:00 +14°C° 0 mm 3 m/S 769 mmHg 58%
    17:00 +12°C° 0 mm 4 m/S 769 mmHg 60%
    18:00 +11°C° 0 mm 4 m/S 770 mmHg 62%
    19:00 +10°C° 0 mm 4 m/S 769 mmHg 60%
    20:00 +10°C° 0 mm 4 m/S 769 mmHg 59%
    21:00 +10°C° 0 mm 4 m/S 769 mmHg 57%
    22:00 +8°C° 0 mm 4 m/S 769 mmHg 56%
    23:00 +8°C° 0 mm 4 m/S 769 mmHg 55%

    Morgen, 13 Dezember, Mittwoch

    Zeit Temperatur Niederschläge Wind Luftdruck Luftfeuchtigkeit
    00:00 +8°C° 0 mm 4 m/S 769 mmHg 54%
    01:00 +8°C° 0 mm 4 m/S 769 mmHg 53%
    02:00 +8°C° 0 mm 4 m/S 769 mmHg 53%
    03:00 +8°C° 0 mm 4 m/S 769 mmHg 52%
    04:00 +8°C° 0 mm 4 m/S 769 mmHg 52%
    05:00 +8°C° 0 mm 4 m/S 768 mmHg 52%
    06:00 +9°C° 0 mm 3 m/S 768 mmHg 51%
    07:00 +9°C° 0 mm 3 m/S 768 mmHg 51%
    08:00 +10°C° 0 mm 3 m/S 768 mmHg 51%
    09:00 +10°C° 0 mm 3 m/S 768 mmHg 52%
    10:00 +13°C° 0 mm 3 m/S 767 mmHg 49%
    11:00 +16°C° 0 mm 2 m/S 766 mmHg 45%
    12:00 +18°C° 0 mm 2 m/S 766 mmHg 42%
    13:00 +18°C° 0 mm 2 m/S 766 mmHg 47%
    14:00 +18°C° 0 mm 1 m/S 765 mmHg 51%
    15:00 +18°C° 0 mm 1 m/S 765 mmHg 55%
    16:00 +16°C° 0 mm 1 m/S 765 mmHg 56%
    17:00 +14°C° 0 mm 1 m/S 766 mmHg 58%
    18:00 +13°C° 0 mm 1 m/S 766 mmHg 60%
    19:00 +12°C° 0 mm 1 m/S 766 mmHg 60%
    20:00 +12°C° 0 mm 1 m/S 766 mmHg 60%
    21:00 +11°C° 0 mm 1 m/S 766 mmHg 60%
    22:00 +10°C° 0 mm 2 m/S 766 mmHg 59%
    23:00 +10°C° 0 mm 2 m/S 766 mmHg 59%

    übermorgen, 14 Dezember, Donnerstag

    Zeit Temperatur Niederschläge Wind Luftdruck Luftfeuchtigkeit
    00:00 +9°C° 0 mm 2 m/S 766 mmHg 58%
    01:00 +9°C° 0 mm 2 m/S 766 mmHg 57%
    02:00 +9°C° 0 mm 2 m/S 766 mmHg 56%
    03:00 +9°C° 0 mm 2 m/S 766 mmHg 55%
    04:00 +9°C° 0 mm 2 m/S 766 mmHg 55%
    05:00 +9°C° 0 mm 3 m/S 765 mmHg 54%
    06:00 +8°C° 0 mm 3 m/S 765 mmHg 53%
    07:00 +9°C° 0 mm 3 m/S 765 mmHg 53%
    08:00 +10°C° 0 mm 3 m/S 765 mmHg 52%
    09:00 +10°C° 0 mm 3 m/S 765 mmHg 52%
    10:00 +12°C° 0 mm 3 m/S 764 mmHg 48%
    11:00 +14°C° 0 mm 3 m/S 764 mmHg 45%
    12:00 +17°C° 0 mm 3 m/S 763 mmHg 41%
    13:00 +17°C° 0 mm 3 m/S 763 mmHg 44%
    14:00 +17°C° 0 mm 2 m/S 762 mmHg 48%
    15:00 +17°C° 0 mm 2 m/S 762 mmHg 51%
    16:00 +14°C° 0 mm 3 m/S 762 mmHg 53%
    17:00 +13°C° 0 mm 3 m/S 763 mmHg 55%
    18:00 +11°C° 0 mm 3 m/S 763 mmHg 57%
    19:00 +11°C° 0 mm 4 m/S 763 mmHg 55%
    20:00 +11°C° 0 mm 4 m/S 763 mmHg 54%
    21:00 +10°C° 0 mm 4 m/S 763 mmHg 52%
    22:00 +10°C° 0 mm 4 m/S 763 mmHg 51%
    23:00 +10°C° 0 mm 4 m/S 763 mmHg 50%

    15 Dezember, Freitag

    Zeit Temperatur Niederschläge Wind Luftdruck Luftfeuchtigkeit
    00:00 +10°C° 0 mm 4 m/S 763 mmHg 49%
    01:00 +8°C° 0 mm 4 m/S 763 mmHg 48%
    02:00 +8°C° 0 mm 4 m/S 763 mmHg 48%
    03:00 +8°C° 0 mm 4 m/S 763 mmHg 48%
    04:00 +8°C° 0 mm 4 m/S 763 mmHg 48%
    05:00 +8°C° 0 mm 4 m/S 763 mmHg 48%
    06:00 +8°C° 0 mm 4 m/S 763 mmHg 48%
    07:00 +8°C° 0 mm 4 m/S 764 mmHg 48%
    08:00 +10°C° 0 mm 4 m/S 764 mmHg 48%
    09:00 +10°C° 0 mm 4 m/S 764 mmHg 49%
    10:00 +12°C° 0 mm 3 m/S 764 mmHg 45%
    11:00 +14°C° 0 mm 3 m/S 764 mmHg 42%
    12:00 +17°C° 0 mm 2 m/S 764 mmHg 38%
    13:00 +17°C° 0 mm 2 m/S 764 mmHg 42%
    14:00 +16°C° 0 mm 2 m/S 764 mmHg 45%
    15:00 +16°C° 0 mm 2 m/S 764 mmHg 49%
    16:00 +15°C° 0 mm 2 m/S 765 mmHg 51%
    17:00 +13°C° 0 mm 2 m/S 765 mmHg 53%
    18:00 +12°C° 0 mm 2 m/S 766 mmHg 55%
    19:00 +12°C° 0 mm 2 m/S 766 mmHg 55%
    20:00 +10°C° 0 mm 3 m/S 766 mmHg 54%
    21:00 +10°C° 0 mm 3 m/S 767 mmHg 54%
    22:00 +10°C° 0 mm 3 m/S 767 mmHg 53%
    23:00 +9°C° 0 mm 3 m/S 767 mmHg 52%

    16 Dezember, Samstag

    Zeit Temperatur Niederschläge Wind Luftdruck Luftfeuchtigkeit
    00:00 +8°C° 0 mm 4 m/S 767 mmHg 52%
    01:00 +8°C° 0 mm 4 m/S 767 mmHg 51%
    02:00 +8°C° 0 mm 4 m/S 767 mmHg 51%
    03:00 +8°C° 0 mm 4 m/S 767 mmHg 50%
    04:00 +8°C° 0 mm 5 m/S 767 mmHg 50%
    05:00 +8°C° 0 mm 5 m/S 767 mmHg 50%
    06:00 +8°C° 0 mm 5 m/S 767 mmHg 49%
    07:00 +8°C° 0 mm 5 m/S 767 mmHg 49%
    08:00 +9°C° 0 mm 5 m/S 767 mmHg 49%
    09:00 +10°C° 0 mm 5 m/S 767 mmHg 49%
    10:00 +13°C° 0 mm 4 m/S 766 mmHg 46%
    11:00 +15°C° 0 mm 4 m/S 766 mmHg 42%
    12:00 +18°C° 0 mm 4 m/S 765 mmHg 39%
    13:00 +18°C° 0 mm 4 m/S 765 mmHg 41%
    14:00 +18°C° 0 mm 4 m/S 764 mmHg 43%
    15:00 +18°C° 0 mm 4 m/S 764 mmHg 46%
    16:00 +17°C° 0 mm 4 m/S 765 mmHg 47%
    17:00 +14°C° 0 mm 4 m/S 765 mmHg 49%
    18:00 +12°C° 0 mm 4 m/S 766 mmHg 50%
    19:00 +12°C° 0 mm 4 m/S 766 mmHg 49%
    20:00 +12°C° 0 mm 4 m/S 766 mmHg 47%
    21:00 +10°C° 0 mm 5 m/S 766 mmHg 46%
    22:00 +11°C° 0 mm 4 m/S 766 mmHg 45%
    23:00 +11°C° 0 mm 4 m/S 766 mmHg 44%

    17 Dezember, Sonntag

    Zeit Temperatur Niederschläge Wind Luftdruck Luftfeuchtigkeit
    00:00 +11°C° 0 mm 4 m/S 766 mmHg 44%
    01:00 +10°C° 0 mm 5 m/S 766 mmHg 43%
    02:00 +10°C° 0 mm 5 m/S 766 mmHg 42%
    03:00 +10°C° 0 mm 5 m/S 766 mmHg 42%
    04:00 +9°C° 0 mm 5 m/S 766 mmHg 42%
    05:00 +9°C° 0 mm 5 m/S 766 mmHg 42%
    06:00 +9°C° 0 mm 5 m/S 766 mmHg 42%
    07:00 +10°C° 0 mm 5 m/S 766 mmHg 42%
    08:00 +10°C° 0 mm 5 m/S 766 mmHg 42%
    09:00 +12°C° 0 mm 4 m/S 766 mmHg 42%
    10:00 +14°C° 0 mm 4 m/S 765 mmHg 40%
    11:00 +17°C° 0 mm 4 m/S 765 mmHg 39%
    12:00 +19°C° 0 mm 4 m/S 765 mmHg 37%
    13:00 +19°C° 0 mm 3 m/S 764 mmHg 39%
    14:00 +19°C° 0 mm 3 m/S 764 mmHg 40%
    15:00 +19°C° 0 mm 3 m/S 764 mmHg 42%
    16:00 +17°C° 0 mm 3 m/S 764 mmHg 43%
    17:00 +16°C° 0 mm 3 m/S 764 mmHg 45%
    18:00 +13°C° 0 mm 4 m/S 765 mmHg 46%
    19:00 +13°C° 0 mm 4 m/S 765 mmHg 45%
    20:00 +12°C° 0 mm 4 m/S 765 mmHg 43%
    21:00 +12°C° 0 mm 4 m/S 765 mmHg 41%
    22:00 +12°C° 0 mm 4 m/S 765 mmHg 40%
    23:00 +12°C° 0 mm 4 m/S 765 mmHg 39%
    Mehr zeigen